Weather Roundup
Issued by NWS

Home | Current Version | Previous Version | Graphics & Text | Print | Product List | Glossary Off
Versions: 1 2 3 4 5 6 7 8 9 10 11 12 13 14 15 16 17 18 19 20 21 22 23 24 25 26 27 28 29 30 31 32 33 34 35 36 37 38 39 40 41 42 43 44 45 46 47 48 49 50

000
NZUS93 KARX 280310
HRRWXR

CURRENT HOURLY OBSERVATIONS ACROSS
MUCH OF THE UPPER MISSISSIPPI VALLEY
NATIONAL WEATHER SERVICE LA CROSSE WI
1000 PM CDT WED AUG 27 2014


...SOUTHEAST MINNESOTA...


CITY           SKY/WX    TMP DP  RH WIND       PRES   REMARKS
ROCHESTER      CLEAR     63  58  83 SE5       30.16R
ROCHESTER/MAYO FAIR      67  57  70 CALM      30.16R
WINONA         CLEAR     63  61  94 CALM      30.14R
AUSTIN         CLEAR     61  57  88 CALM      30.15R
ALBERT LEA     CLEAR     64  57  77 CALM      30.15R
DODGE CENTER   CLEAR     63  59  88 CALM      30.15R
PRESTON        CLEAR     64  62  93 CALM      30.16R
OWATONNA       CLEAR     61  57  88 CALM      30.15R
FARIBAULT      CLEAR     63  55  77 CALM      30.15R
$$

...ELSEWHERE IN MINNESOTA...


CITY           SKY/WX    TMP DP  RH WIND       PRES   REMARKS
MINNEAPOLIS    PTCLDY    70  58  65 NE7       30.13R
INTNL FALLS    CLEAR     50  48  93 CALM      30.12R
DULUTH         PTCLDY    59  52  77 CALM      30.15R
RED WING       MOCLDY    66  61  82 CALM      30.13R
REDWOOD FALLS  CLEAR     64  58  80 SE8       30.11S
MANKATO        CLEAR     64  55  72 SE6       30.14R
WORTHINGTON    MOCLDY    64  63  94 E6        30.14R
FAIRMONT       CLEAR     61  55  82 E6        30.13S
$$

...SOUTHWEST WISCONSIN...


CITY           SKY/WX    TMP DP  RH WIND       PRES   REMARKS
LA CROSSE      CLEAR     66  61  84 SE3       30.13R
PRAIRIE DU CHI PTCLDY    64  60  88 NE3       30.14R
BOSCOBEL       CLEAR     62  60  93 CALM      30.14R
LONE ROCK      CLEAR     66  61  84 NE3       30.14R
PLATTEVILLE    CLEAR     66  61  85 NE5       30.16R
FORT MC COY    CLEAR     60  58  93 CALM      30.15R
CAMP DOUGLAS   CLEAR     57  57 100 CALM      30.14R
VIROQUA        FAIR      60  60 100 CALM      30.16R
WIS DELLS      CLEAR     61  58  90 CALM      30.14R
$$

...ELSEWHERE IN WISCONSIN...


CITY           SKY/WX    TMP DP  RH WIND       PRES   REMARKS
MILWAUKEE      PTCLDY    64  55  72 E5        30.15R
MADISON        CLEAR     63  60  90 CALM      30.14R
GREEN BAY      CLEAR     60  57  89 SE5       30.15R
EAU CLAIRE     CLEAR     62  57  83 NE3       30.14R
BLACK RVR FLS  FAIR      58  58 100 CALM      30.14R
MEDFORD        CLEAR     52  52  99 CALM      30.17R
WAUSAU         CLEAR     61  52  72 CALM      30.14R
WIS RAPIDS     CLEAR     59  57  93 CALM      30.15R
MARSHFIELD     CLEAR     59  54  83 N3        30.15R
RICE LAKE      CLEAR     58  56  92 CALM      30.17S
$$

...NORTHEAST IOWA...


CITY           SKY/WX    TMP DP  RH WIND       PRES   REMARKS
WATERLOO       MOCLDY    65  61  87 NE3       30.12R
DUBUQUE        PTCLDY    66  61  84 E6        30.14R
DECORAH        CLEAR     61  61 100 CALM      30.15R
MASON CITY     PTCLDY    64  61  90 E3        30.16R
CHARLES CITY   MOCLDY    66  61  82 E6        30.16R
OELWEIN        MOCLDY    64  61  88 E5        30.15R
$$

...ELSEWHERE IN IOWA...


CITY           SKY/WX    TMP DP  RH WIND       PRES   REMARKS
DES MOINES     CLOUDY    73  68  84 E3        30.10R
IOWA CITY      PTCLDY    68  64  87 E3        30.12R
FORT DODGE     CLOUDY    68  64  88 E7        30.13S
MARSHALLTOWN   MOCLDY    67  65  93 CALM      30.13R
CEDAR RAPIDS   PTCLDY    66  63  90 E6        30.11R
$$

...NORTHERN ILLINOIS...


CITY           SKY/WX    TMP DP  RH WIND       PRES   REMARKS
CHICAGO-OHARE  PTCLDY    69  59  70 NE7       30.13R
DUPAGE         CLEAR     67  61  81 E6        30.13R
CHICAGO-MIDWAY PTCLDY    71  62  73 E7        30.13R
MOLINE         CLEAR     67  63  87 CALM      30.11R
ROCKFORD       MOCLDY    68  63  84 E7        30.15R
STERLING       CLEAR     64  61  88 CALM      30.13R
PEORIA         MOCLDY    75  66  73 CALM      30.10R
$$

NOTE: "FAIR" INDICATES FEW OR NO CLOUDS BELOW 12,000 FEET WITH NO
SIGNIFICANT WEATHER AND/OR OBSTRUCTIONS TO VISIBILITY. WIND
SPEEDS ARE IN MILES-PER-HOUR.



USA.gov is the U.S. government's official web portal to all federal, state and local government web resources and services.